Terminal Aerodrome Forecast
Issued by NWS Twin Cities, MN

Home | Current Version | Previous Version | Text Only | Print | Product List | Glossary On
Versions: 1 2 3 4 5 6 7 8 9 10 11 12 13 14 15 16 17 18 19 20 21 22 23 24 25 26 27 28
000
FTUS43 KMPX 290935 AAA
TAFMSP
TAF AMD
KMSP 290935Z 2910/3012 17019G28KT 6SM -RA BKN040 OVC070
     FM291200 19016G24KT P6SM VCSH SCT025 OVC040
     FM291600 29016G27KT P6SM VCSH BKN020 OVC040
     FM291800 30027G38KT P6SM SCT045
     FM300000 30018KT P6SM FEW050=

USA.gov is the U.S. government's official web portal to all federal, state and local government web resources and services.